Regional Weather Roundup
Issued by NWS

Current Version | Previous Version | Text Only | Print | Product List | Glossary On
Versions: 1 2 3 4 5 6 7 8 9 10 11 12 13 14 15 16 17 18 19 20 21 22 23 24 25 26 27 28 29 30 31 32 33 34 35 36 37 38 39 40 41 42 43 44 45 46 47 48 49 50
000
ASUS45 KSLC 210710
RWRUT

UTAH REGIONAL WEATHER ROUNDUP
NATIONAL WEATHER SERVICE SALT LAKE CITY UT
100 AM MDT MON AUG 21 2017

UTZ001>011-023>025-210800-

NORTHERN UTAH

CITY           SKY/WX    TMP DP  RH WIND       PRES   REMARKS
BRIGHAM CITY   PTCLDY    71  39  30 CALM      30.05R
HILL AFB       CLEAR     71  36  27 E10       30.08R
LOGAN          PTCLDY    62  47  57 CALM      30.08R
OGDEN          PTCLDY    70  38  31 S5        30.05R
SALT LAKE CITY PTCLDY    75  41  29 S7        30.03R
TOOELE VALLEY  CLEAR     70  39  32 S13       30.04R
WENDOVER       PTCLDY    81  36  19 N8        30.05R
HEBER CITY     PTCLDY    61  41  48 S3        30.16R
WEST JORDAN    CLEAR     74  53  47 S9        30.07R

$$

UTZ011>015-024>027-210800-

CENTRAL/NORTHEAST UTAH

CITY           SKY/WX    TMP DP  RH WIND       PRES   REMARKS
PROVO AIRPORT  PTCLDY    69  44  40 SE7       30.09R
MOAB/CANYONLAN PTCLDY    75  36  24 SW6       30.04S
DELTA          MOCLDY    70  37  30 S8        30.10R
PRICE          MOCLDY    71  37  28 NW3       30.17R
ROOSEVELT      CLOUDY    63  46  55 W5        30.14S
VERNAL         CLOUDY    67  43  41 W6        30.12R

$$

UTZ013>016-019>022-027-210800-

SOUTHERN UTAH

CITY           SKY/WX    TMP DP  RH WIND       PRES   REMARKS
BRYCE CANYON   CLOUDY    54  47  77 W9        30.34R
CEDAR CITY     MOCLDY    67  44  43 SW6       30.18S
MILFORD        MOCLDY    71  46  40 SW10      30.12R
ST GEORGE      MOSUNNY   81  49  32 N5        30.02R
HANKSVILLE     CLOUDY    81  37  21 S5        30.08R
BLANDING       MOCLDY    68  46  44 E5        30.29R

$$

REGIONAL REPORTS     COLORADO/ARIZONA

CITY           SKY/WX    TMP DP  RH WIND       PRES   REMARKS
CRAIG, CO      CLOUDY    50  39  66 W3        30.22R
GRAND JUNCTION CLOUDY    77  34  21 CALM      30.07R
RIFLE, CO      CLOUDY    65  37  35 SE7       30.15R
MONTROSE, CO   PTCLDY    70  40  33 SE12G21   30.18R
CORTEZ, CO     CLOUDY    63  50  62 CALM      30.24R
COLORADO CITY    N/A     73  46  38 SE8       30.19R
PAGE, AZ       MOCLDY    80  44  27 W3        30.09S
GRAND CANYON   CLOUDY    57  49  74 N3        30.31R
KINGMAN, AZ    CLOUDY    78  52  40 W6        30.04S
FLAGSTAFF, AZ  CLOUDY    57  50  77 SW7       30.33R

$$

REGIONAL REPORTS    NEVADA/IDAHO/WYOMING

CITY           SKY/WX    TMP DP  RH WIND       PRES   REMARKS
LAS VEGAS, NV  CLOUDY    91  47  21 S7        29.91R
ELY, NY        PTCLDY    64  27  24 E5        30.20R
ELKO, NV       MOCLDY    74  31  20 NE7       30.10S
POCATELLO, ID  CLOUDY    71  33  24 SW16      30.10R
BURLEY, ID     PTCLDY    58  41  53 SW5       30.07R
FORT BRIDGER,    N/A     65  32  29 W7        30.28S
EVANSTON, WY   CLOUDY    61  34  36 SE8       30.27R
ROCK SPRINGS,  CLEAR     67  34  29 CALM      30.24R
KEMMERER, WY     N/A     54  32  43 N10       30.28S

$$



USA.gov is the U.S. government's official web portal to all federal, state and local government web resources and services.